Time,TemperatureF,DewpointF,PressureIn,WindDirection,WindDirectionDegrees,WindSpeedMPH,WindSpeedGustMPH,Humidity,HourlyPrecipIn,Conditions,Clouds,dailyrainin,SoftwareType,DateUTC
2013-02-23 00:12:00,70.6,67.0,29.99,SSE,166,0.0,4.0,89,0.00,,,0.00,weatherlink.com 1.10,2013-02-23 05:12:00,
2013-02-23 00:28:00,70.2,67.0,29.98,SSE,155,3.0,7.0,89,0.00,,,0.00,weatherlink.com 1.10,2013-02-23 05:28:00,
2013-02-23 00:43:00,69.8,67.0,29.98,SSE,165,2.0,6.0,90,0.00,,,0.00,weatherlink.com 1.10,2013-02-23 05:43:00,
2013-02-23 00:58:00,69.5,67.0,29.98,South,171,3.0,6.0,90,0.00,,,0.00,weatherlink.com 1.10,2013-02-23 05:58:00,
2013-02-23 01:13:00,69.4,67.0,29.98,South,169,0.0,5.0,91,0.00,,,0.00,weatherlink.com 1.10,2013-02-23 06:13:00,
2013-02-23 01:28:00,68.7,66.0,29.97,South,169,0.0,4.0,91,0.00,,,0.00,weatherlink.com 1.10,2013-02-23 06:28:00,
2013-02-23 01:43:00,68.1,65.0,29.97,South,169,0.0,1.0,91,0.00,,,0.00,weatherlink.com 1.10,2013-02-23 06:43:00,
2013-02-23 01:58:00,68.3,66.0,29.96,South,169,0.0,2.0,92,0.00,,,0.00,weatherlink.com 1.10,2013-02-23 06:58:00,
2013-02-23 02:13:00,68.3,66.0,29.96,South,169,0.0,3.0,92,0.00,,,0.00,weatherlink.com 1.10,2013-02-23 07:13:00,
2013-02-23 02:28:00,68.7,66.0,29.95,South,169,0.0,3.0,92,0.00,,,0.00,weatherlink.com 1.10,2013-02-23 07:28:00,
2013-02-23 02:43:00,68.9,67.0,29.95,South,169,0.0,2.0,92,0.00,,,0.00,weatherlink.com 1.10,2013-02-23 07:43:00,
2013-02-23 02:58:00,68.9,67.0,29.95,South,169,0.0,0.0,92,0.00,,,0.00,weatherlink.com 1.10,2013-02-23 07:58:00,
2013-02-23 03:28:00,68.7,66.0,29.95,South,169,0.0,3.0,92,0.00,,,0.00,weatherlink.com 1.10,2013-02-23 08:28:00,
2013-02-23 03:43:00,68.5,66.0,29.94,South,169,0.0,0.0,92,0.00,,,0.00,weatherlink.com 1.10,2013-02-23 08:43:00,
2013-02-23 03:58:00,68.3,66.0,29.94,South,169,0.0,1.0,92,0.00,,,0.00,weatherlink.com 1.10,2013-02-23 08:58:00,
2013-02-23 04:13:00,68.3,66.0,29.94,South,169,0.0,2.0,92,0.00,,,0.00,weatherlink.com 1.10,2013-02-23 09:13:00,
2013-02-23 04:28:00,68.2,66.0,29.93,South,169,0.0,4.0,92,0.00,,,0.00,weatherlink.com 1.10,2013-02-23 09:28:00,
2013-02-23 04:43:00,67.7,65.0,29.93,South,169,1.0,3.0,92,0.00,,,0.00,weatherlink.com 1.10,2013-02-23 09:43:00,
2013-02-23 04:58:00,67.2,65.0,29.94,South,169,0.0,2.0,92,0.00,,,0.00,weatherlink.com 1.10,2013-02-23 09:58:00,
2013-02-23 05:13:00,67.1,65.0,29.94,South,169,0.0,3.0,92,0.00,,,0.00,weatherlink.com 1.10,2013-02-23 10:13:00,
2013-02-23 05:28:00,67.3,65.0,29.94,SW,229,3.0,7.0,93,0.00,,,0.00,weatherlink.com 1.10,2013-02-23 10:28:00,
2013-02-23 05:43:00,67.4,65.0,29.94,SW,232,4.0,8.0,93,0.00,,,0.00,weatherlink.com 1.10,2013-02-23 10:43:00,
2013-02-23 05:58:00,67.8,66.0,29.94,WSW,237,5.0,9.0,93,0.00,,,0.00,weatherlink.com 1.10,2013-02-23 10:58:00,
2013-02-23 06:13:00,67.9,66.0,29.94,SSW,209,3.0,8.0,92,0.00,,,0.00,weatherlink.com 1.10,2013-02-23 11:13:00,
2013-02-23 06:28:00,68.1,66.0,29.94,SSW,213,6.0,8.0,92,0.00,,,0.00,weatherlink.com 1.10,2013-02-23 11:28:00,
2013-02-23 06:43:00,68.5,66.0,29.95,WSW,250,3.0,14.0,92,0.00,,,0.00,weatherlink.com 1.10,2013-02-23 11:43:00,
2013-02-23 06:58:00,68.8,66.0,29.95,SW,219,5.0,8.0,91,0.00,,,0.00,weatherlink.com 1.10,2013-02-23 11:58:00,
2013-02-23 07:13:00,69.0,66.0,29.96,WSW,237,6.0,9.0,91,0.00,,,0.00,weatherlink.com 1.10,2013-02-23 12:13:00,
2013-02-23 07:28:00,69.1,66.0,29.96,SSW,211,7.0,9.0,91,0.00,,,0.00,weatherlink.com 1.10,2013-02-23 12:28:00,
2013-02-23 07:43:00,69.3,66.0,29.96,SSW,210,2.0,9.0,90,0.00,,,0.00,weatherlink.com 1.10,2013-02-23 12:43:00,
2013-02-23 07:58:00,69.5,67.0,29.96,SSW,205,4.0,7.0,90,0.00,,,0.00,weatherlink.com 1.10,2013-02-23 12:58:00,
2013-02-23 08:13:00,71.2,68.0,29.97,SSW,194,5.0,10.0,89,0.00,,,0.00,weatherlink.com 1.10,2013-02-23 13:13:00,
2013-02-23 08:28:00,72.4,68.0,29.97,WSW,247,2.0,8.0,87,0.00,,,0.00,weatherlink.com 1.10,2013-02-23 13:28:00,
2013-02-23 08:43:00,72.3,68.0,29.96,SSW,211,10.0,15.0,86,0.00,,,0.00,weatherlink.com 1.10,2013-02-23 13:43:00,
2013-02-23 08:58:00,72.5,68.0,29.96,West,265,13.0,16.0,86,0.00,,,0.00,weatherlink.com 1.10,2013-02-23 13:58:00,
2013-02-23 09:13:00,73.9,69.0,29.96,SW,232,3.0,13.0,84,0.00,,,0.00,weatherlink.com 1.10,2013-02-23 14:13:00,
2013-02-23 09:28:00,75.1,69.0,29.95,SW,227,4.0,17.0,82,0.00,,,0.00,weatherlink.com 1.10,2013-02-23 14:28:00,
2013-02-23 09:43:00,76.7,70.0,29.95,West,274,7.0,14.0,79,0.00,,,0.00,weatherlink.com 1.10,2013-02-23 14:43:00,
2013-02-23 09:58:00,76.7,69.0,29.94,SW,231,10.0,19.0,77,0.00,,,0.00,weatherlink.com 1.10,2013-02-23 14:58:00,
2013-02-23 10:13:00,77.6,70.0,29.94,SSW,192,7.0,20.0,76,0.00,,,0.00,weatherlink.com 1.10,2013-02-23 15:13:00,
2013-02-23 10:29:00,76.7,68.0,29.95,South,179,8.0,19.0,75,0.00,,,0.00,weatherlink.com 1.10,2013-02-23 15:29:00,
2013-02-23 10:44:00,76.4,68.0,29.94,WSW,245,7.0,19.0,76,0.00,,,0.00,weatherlink.com 1.10,2013-02-23 15:44:00,
2013-02-23 10:59:00,77.9,68.0,29.95,SW,233,14.0,23.0,72,0.00,,,0.00,weatherlink.com 1.10,2013-02-23 15:59:00,
2013-02-23 11:14:00,78.9,69.0,29.95,SW,227,4.0,16.0,71,0.00,,,0.00,weatherlink.com 1.10,2013-02-23 16:14:00,
2013-02-23 11:29:00,79.1,69.0,29.95,West,276,9.0,17.0,70,0.00,,,0.00,weatherlink.com 1.10,2013-02-23 16:29:00,
2013-02-23 11:44:00,80.8,70.0,29.94,WSW,250,5.0,15.0,70,0.00,,,0.00,weatherlink.com 1.10,2013-02-23 16:44:00,
2013-02-23 11:59:00,81.8,69.0,29.94,WSW,240,16.0,20.0,66,0.00,,,0.00,weatherlink.com 1.10,2013-02-23 16:59:00,
2013-02-23 12:14:00,82.1,70.0,29.93,SW,217,7.0,23.0,66,0.00,,,0.00,weatherlink.com 1.10,2013-02-23 17:14:00,
2013-02-23 12:29:00,83.0,69.0,29.93,WSW,258,12.0,18.0,63,0.00,,,0.00,weatherlink.com 1.10,2013-02-23 17:29:00,
2013-02-23 12:44:00,82.3,69.0,29.93,West,275,7.0,15.0,64,0.00,,,0.00,weatherlink.com 1.10,2013-02-23 17:44:00,
2013-02-23 12:59:00,82.5,69.0,29.92,WSW,250,9.0,19.0,63,0.00,,,0.00,weatherlink.com 1.10,2013-02-23 17:59:00,
2013-02-23 13:14:00,82.8,68.0,29.91,WSW,242,6.0,19.0,62,0.00,,,0.00,weatherlink.com 1.10,2013-02-23 18:14:00,
2013-02-23 13:29:00,84.1,69.0,29.91,WSW,255,5.0,13.0,61,0.00,,,0.00,weatherlink.com 1.10,2013-02-23 18:29:00,
2013-02-23 13:44:00,84.0,69.0,29.90,West,263,6.0,17.0,60,0.00,,,0.00,weatherlink.com 1.10,2013-02-23 18:44:00,
2013-02-23 13:59:00,84.2,67.0,29.90,WNW,296,7.0,18.0,57,0.00,,,0.00,weatherlink.com 1.10,2013-02-23 18:59:00,
2013-02-23 14:14:00,84.3,68.0,29.90,SSW,194,5.0,20.0,58,0.00,,,0.00,weatherlink.com 1.10,2013-02-23 19:14:00,
2013-02-23 14:29:00,83.8,68.0,29.89,West,270,3.0,16.0,59,0.00,,,0.00,weatherlink.com 1.10,2013-02-23 19:29:00,
2013-02-23 14:44:00,84.0,67.0,29.89,West,265,0.0,16.0,57,0.00,,,0.00,weatherlink.com 1.10,2013-02-23 19:44:00,
2013-02-23 14:59:00,84.4,68.0,29.88,WSW,258,7.0,13.0,58,0.00,,,0.00,weatherlink.com 1.10,2013-02-23 19:59:00,
2013-02-23 15:14:00,84.5,68.0,29.88,NW,308,4.0,14.0,57,0.00,,,0.00,weatherlink.com 1.10,2013-02-23 20:14:00,
2013-02-23 15:29:00,84.4,67.0,29.88,WSW,253,6.0,16.0,56,0.00,,,0.00,weatherlink.com 1.10,2013-02-23 20:29:00,
2013-02-23 15:44:00,85.0,66.0,29.87,West,269,9.0,19.0,54,0.00,,,0.00,weatherlink.com 1.10,2013-02-23 20:44:00,
2013-02-23 15:59:00,83.7,66.0,29.86,West,265,3.0,14.0,55,0.00,,,0.00,weatherlink.com 1.10,2013-02-23 20:59:00,
2013-02-23 16:14:00,83.9,66.0,29.85,WSW,256,4.0,11.0,56,0.00,,,0.00,weatherlink.com 1.10,2013-02-23 21:14:00,
2013-02-23 16:29:00,84.6,67.0,29.86,NW,309,2.0,16.0,55,0.00,,,0.00,weatherlink.com 1.10,2013-02-23 21:29:00,
2013-02-23 16:44:00,83.4,67.0,29.85,West,272,3.0,10.0,58,0.00,,,0.00,weatherlink.com 1.10,2013-02-23 21:44:00,
2013-02-23 16:59:00,82.1,66.0,29.85,WSW,237,5.0,12.0,59,0.00,,,0.00,weatherlink.com 1.10,2013-02-23 21:59:00,
2013-02-23 17:14:00,80.7,66.0,29.85,WSW,237,5.0,11.0,61,0.00,,,0.00,weatherlink.com 1.10,2013-02-23 22:14:00,
2013-02-23 17:29:00,80.1,66.0,29.85,West,273,5.0,12.0,63,0.00,,,0.00,weatherlink.com 1.10,2013-02-23 22:29:00,
2013-02-23 17:44:00,79.6,66.0,29.84,South,182,7.0,7.0,64,0.00,,,0.00,weatherlink.com 1.10,2013-02-23 22:44:00,
2013-02-23 17:59:00,79.1,67.0,29.85,SSW,209,2.0,10.0,66,0.00,,,0.00,weatherlink.com 1.10,2013-02-23 22:59:00,
2013-02-23 18:14:00,78.4,67.0,29.86,SW,220,3.0,7.0,67,0.00,,,0.00,weatherlink.com 1.10,2013-02-23 23:14:00,
2013-02-23 18:29:00,77.3,66.0,29.87,NW,311,3.0,14.0,69,0.00,,,0.00,weatherlink.com 1.10,2013-02-23 23:29:00,
2013-02-23 18:44:00,76.6,67.0,29.87,SW,226,2.0,7.0,71,0.00,,,0.00,weatherlink.com 1.10,2013-02-23 23:44:00,
2013-02-23 18:59:00,76.2,67.0,29.88,WSW,242,7.0,7.0,73,0.00,,,0.00,weatherlink.com 1.10,2013-02-23 23:59:00,
2013-02-23 19:14:00,75.7,67.0,29.87,SW,233,2.0,6.0,75,0.00,,,0.00,weatherlink.com 1.10,2013-02-24 00:14:00,
2013-02-23 19:29:00,75.4,67.0,29.88,SW,232,1.0,7.0,76,0.00,,,0.00,weatherlink.com 1.10,2013-02-24 00:29:00,
2013-02-23 19:44:00,75.1,67.0,29.88,SW,219,0.0,5.0,77,0.00,,,0.00,weatherlink.com 1.10,2013-02-24 00:44:00,
2013-02-23 19:59:00,75.3,68.0,29.89,WSW,249,1.0,13.0,77,0.00,,,0.00,weatherlink.com 1.10,2013-02-24 00:59:00,
2013-02-23 20:14:00,75.4,68.0,29.89,WSW,237,2.0,9.0,77,0.00,,,0.00,weatherlink.com 1.10,2013-02-24 01:14:00,
2013-02-23 20:29:00,75.4,68.0,29.89,WSW,237,5.0,13.0,78,0.00,,,0.00,weatherlink.com 1.10,2013-02-24 01:29:00,
2013-02-23 20:44:00,75.2,68.0,29.88,SW,229,8.0,9.0,79,0.00,,,0.00,weatherlink.com 1.10,2013-02-24 01:44:00,
2013-02-23 20:59:00,74.8,68.0,29.89,WSW,250,3.0,11.0,80,0.00,,,0.00,weatherlink.com 1.10,2013-02-24 01:59:00,
2013-02-23 21:14:00,74.5,68.0,29.89,West,259,4.0,8.0,81,0.00,,,0.00,weatherlink.com 1.10,2013-02-24 02:14:00,
2013-02-23 21:29:00,70.2,65.0,29.93,North,355,10.0,25.0,82,0.00,,,0.00,weatherlink.com 1.10,2013-02-24 02:29:00,
2013-02-23 21:45:00,66.3,63.0,29.95,NNE,15,5.0,10.0,89,0.24,,,0.24,weatherlink.com 1.10,2013-02-24 02:45:00,
2013-02-23 22:00:00,65.1,63.0,29.96,NNW,331,2.0,10.0,91,0.30,,,0.30,weatherlink.com 1.10,2013-02-24 03:00:00,
2013-02-23 22:15:00,64.7,62.0,29.94,NE,34,2.0,4.0,92,0.30,,,0.30,weatherlink.com 1.10,2013-02-24 03:15:00,
2013-02-23 22:30:00,64.3,62.0,29.95,NNE,26,0.0,6.0,92,0.29,,,0.30,weatherlink.com 1.10,2013-02-24 03:30:00,
2013-02-23 22:45:00,63.6,61.0,29.93,NNE,32,0.0,5.0,92,0.06,,,0.30,weatherlink.com 1.10,2013-02-24 03:45:00,
2013-02-23 23:00:00,63.1,61.0,29.94,NNE,32,0.0,3.0,92,0.00,,,0.30,weatherlink.com 1.10,2013-02-24 04:00:00,
2013-02-23 23:15:00,63.0,61.0,29.93,NNE,32,0.0,0.0,93,0.02,,,0.32,weatherlink.com 1.10,2013-02-24 04:15:00,
2013-02-23 23:30:00,62.8,61.0,29.93,ESE,115,1.0,4.0,93,0.02,,,0.32,weatherlink.com 1.10,2013-02-24 04:30:00,
2013-02-23 23:45:00,62.2,60.0,29.92,ESE,115,1.0,2.0,93,0.02,,,0.32,weatherlink.com 1.10,2013-02-24 04:45:00,